TimeEST,TemperatureF,Dew PointF,Humidity,Sea Level PressureIn,VisibilityMPH,Wind Direction,Wind SpeedMPH,Gust SpeedMPH,PrecipitationIn,Events,Conditions,WindDirDegrees,DateUTC
12:56 AM,23.0,3.9,44,30.28,10.0,West,6.9,-,N/A,,Clear,280,2014-01-01 05:56:00
1:56 AM,21.9,3.9,46,30.31,10.0,West,8.1,-,N/A,,Clear,270,2014-01-01 06:56:00
2:56 AM,21.0,5.0,50,30.33,10.0,West,4.6,-,N/A,,Clear,260,2014-01-01 07:56:00
3:56 AM,21.0,6.1,53,30.34,10.0,West,4.6,-,N/A,,Clear,260,2014-01-01 08:56:00
4:56 AM,21.0,6.1,53,30.34,10.0,Variable,6.9,-,N/A,,Clear,0,2014-01-01 09:56:00
5:56 AM,19.9,6.1,55,30.37,10.0,WSW,3.5,-,N/A,,Clear,250,2014-01-01 10:56:00
6:56 AM,19.9,7.0,57,30.38,10.0,Calm,Calm,-,N/A,,Clear,0,2014-01-01 11:56:00
7:56 AM,21.0,9.0,60,30.39,10.0,Calm,Calm,-,N/A,,Clear,0,2014-01-01 12:56:00
8:56 AM,23.0,9.0,55,30.41,10.0,Calm,Calm,-,N/A,,Clear,0,2014-01-01 13:56:00
9:56 AM,26.1,10.9,53,30.42,10.0,WNW,8.1,-,N/A,,Clear,290,2014-01-01 14:56:00
10:56 AM,27.0,10.0,49,30.40,10.0,WNW,11.5,-,N/A,,Clear,300,2014-01-01 15:56:00
11:56 AM,28.0,10.9,49,30.38,10.0,West,6.9,-,N/A,,Partly Cloudy,270,2014-01-01 16:56:00
12:56 PM,28.9,10.9,47,30.36,10.0,WNW,6.9,-,N/A,,Mostly Cloudy,290,2014-01-01 17:56:00
1:56 PM,28.9,12.0,49,30.35,10.0,WSW,3.5,-,N/A,,Mostly Cloudy,240,2014-01-01 18:56:00
2:56 PM,30.0,12.9,49,30.34,10.0,Calm,Calm,-,N/A,,Mostly Cloudy,0,2014-01-01 19:56:00
3:56 PM,30.0,12.9,49,30.34,10.0,Calm,Calm,-,N/A,,Overcast,0,2014-01-01 20:56:00
4:56 PM,30.0,14.0,51,30.34,10.0,Calm,Calm,-,N/A,,Mostly Cloudy,0,2014-01-01 21:56:00
5:56 PM,28.9,14.0,54,30.34,10.0,ENE,3.5,-,N/A,,Overcast,70,2014-01-01 22:56:00
6:56 PM,28.0,14.0,56,30.35,10.0,ENE,3.5,-,N/A,,Partly Cloudy,60,2014-01-01 23:56:00
7:56 PM,28.0,12.9,53,30.34,10.0,NE,5.8,-,N/A,,Mostly Cloudy,40,2014-01-02 00:56:00
8:56 PM,28.0,12.9,53,30.33,10.0,NE,4.6,-,N/A,,Mostly Cloudy,40,2014-01-02 01:56:00
9:56 PM,28.0,14.0,56,30.30,10.0,NE,4.6,-,N/A,,Overcast,50,2014-01-02 02:56:00
10:56 PM,28.0,14.0,56,30.29,10.0,ENE,5.8,-,N/A,,Overcast,60,2014-01-02 03:56:00
11:56 PM,28.0,14.0,56,30.27,10.0,ENE,9.2,-,N/A,,Overcast,60,2014-01-02 04:56:00